Weather in Kopachevo

Russia / Arkhangel'skaya Oblast'     63°57′24″N   41°42′08″E
temp.,
°C
wind,
m/s
gust,
m/s
humid.,
%
clouds,
%
prec.,
mm/h
press.,
hPa
HPBL,
m
14 august, sun
sun1400:00+7nw117529 0.0 102210
03:00+6w11735 0.0 102310
06:00+9ssw126626 0.0 102375
09:00+16s2452100 0.0 1022501
12:00+16ssw275968 0.0 1022487
15:00+18wsw265622 0.0 1021411
18:00+20wsw365598 0.0 1020689
21:00+14ssw257289 0.0 102091
15 august, mon
mon1500:00+15wsw2674100 0.0 1020147
03:00+15wnw117997 0.0 102014
06:00+15nne12786 0.0 102149
09:00+20ene12556 0.0 1022540
12:00+23n12435 0.0 10231411
15:00+24n234124 0.0 10231918
18:00+22ene235569 0.0 1022137
21:00+16ese277186 0.0 1023122
16 august, tue
tue1600:00+14se287491 0.0 1024172
03:00+13sse2581100 0.0 1024101
06:00+15sse268098 0.0 1023169
09:00+21ssw3561100 0.0 1023392
12:00+25sw3546100 0.0 10221101
15:00+27wsw45415 0.0 10211750
18:00+25sw24564 0.0 1021209
21:00+19sw22755 0.0 102138
17 august, wed
wed1700:00+17ssw2382100 0.0 102152
03:00+16sw22897 0.0 102126
06:00+18wsw128193 0.0 102163
09:00+22sw136352 0.0 1021328
12:00+28wsw23445 0.0 10201316
15:00+28wsw233999 0.0 10202396
18:00+24sse1159100 0.0 102011
21:00+21s116643 0.0 102011
18 august, thu
thu1800:00+20ssw246735 0.0 102073
03:00+18s227590 0.0 102033
06:00+19ssw24788 0.0 1020111
09:00+24ssw35568 0.0 1020471
12:00+27s355030 0.0 1020912
15:00+27wsw244875 0.0 10201479
18:00+25ssw2459100 0.0 1020127
21:00+18wnw2693100 0.6 1020161